[[[{"header":{"parameterUnit":"kt","parameterCategory":2,"dx":1,"dy":1,"la1":30.253999710083008,"la2":30.299108505249023,"lo1":-89.0895004272461,"lo2":-89.04439544677734,"nx":28,"ny":28,"refTime":"2022-09-21T21:00:00:Z","depth":0,"parameterNumber":1,"parameterNumberName":"U-component_of_WINDS"},"data":[-1.5581,-1.5586,-1.5559,-1.5552,-1.5526,-1.5518,-1.5506,-1.5487,-1.5466,-1.5452,-1.5439,-1.5412,-1.5379,-1.5357,-1.5342,-1.533,-1.5328,-1.535,-1.5333,-1.5256,-1.5244,-1.5232,-1.5231,-1.5349,-1.5349,-1.5417,-1.5418,-1.5419,-1.5531,-1.5506,-1.5494,-1.5464,-1.5453,-1.5416,-1.5389,-1.5383,-1.5375,-1.5348,-1.5333,-1.5318,-1.5303,-1.5261,-1.5242,-1.5244,-1.5226,-1.5241,-1.5243,-1.5239,-1.5155,-1.5153,-1.5257,-1.5257,-1.5257,-1.5257,-1.5257,-1.5257,-1.5434,-1.5437,-1.5403,-1.5389,-1.5366,-1.5346,-1.5344,-1.531,-1.5298,-1.5274,-1.5242,-1.5233,-1.52,-1.5161,-1.5141,-1.5134,-1.5112,-1.512,-1.5123,-1.5127,-1.5136,-1.5048,-1.5128,-1.5128,-1.5128,-1.5127,-1.5127,0,-1.5355,-1.5332,-1.5318,-1.5296,-1.5284,-1.5263,-1.524,-1.5238,-1.5178,-1.517,-1.5156,-1.5143,-1.5117,-1.5102,-1.5076,-1.5053,-1.5014,-1.5005,-1.5011,-1.503,-1.505,-1.5043,-1.4912,-1.5004,-1.5002,-1.5002,-1.5001,-1.5,-1.5259,-1.5264,-1.5213,-1.5207,-1.5187,-1.5177,-1.5166,-1.5112,-1.5102,-1.5065,-1.507,-1.5052,-1.5036,-1.5017,-1.4976,-1.4957,-1.4938,-1.4977,-1.4935,-1.4952,-1.4944,-1.4945,-1.4947,-1.4988,-1.4989,-1.4991,-1.4992,0,-1.5208,-1.5161,-1.5161,-1.5109,-1.5096,-1.5105,-1.5061,-1.5061,-1.5027,-1.5023,-1.5018,-1.4965,-1.4952,-1.4904,-1.4878,-1.4854,-1.4871,-1.485,-1.4883,-1.4878,-1.4911,-1.491,-1.5017,-1.503,-1.4903,-1.4904,-1.4905,0,-1.5109,-1.5117,-1.5048,-1.505,-1.5058,-1.5004,-1.5013,-1.4985,-1.4954,-1.495,-1.4896,-1.4894,-1.4832,-1.4823,-1.4787,-1.4791,-1.4785,-1.4768,-1.4759,-1.4775,-1.4778,-1.4771,-1.4767,-1.4733,-1.4733,-1.4732,-1.4732,0,-1.5037,-1.5007,-1.501,-1.4996,-1.4941,-1.4943,-1.4921,-1.4885,-1.4874,-1.485,-1.4843,-1.4819,-1.4808,-1.4791,-1.4745,-1.4719,-1.4748,-1.4702,-1.4731,-1.4733,-1.4742,-1.4743,-1.4847,-1.4731,-1.4731,-1.4731,-1.4731,0,-1.495,-1.4928,-1.4937,-1.489,-1.4885,-1.4885,-1.486,-1.4849,-1.4815,-1.4792,-1.4773,-1.4732,-1.4729,-1.4688,-1.4684,-1.4664,-1.4655,-1.4637,-1.4638,-1.4638,-1.4594,-1.4664,-1.4765,-1.4776,-1.4635,-1.4634,-1.4633,0,-1.4883,-1.4878,-1.4831,-1.484,-1.4832,-1.4773,-1.4773,-1.4744,-1.4713,-1.4701,-1.4667,-1.4654,-1.4612,-1.4602,-1.4605,-1.457,-1.4597,-1.4564,-1.4552,-1.4552,-1.4567,-1.4659,-1.4688,-1.4748,-1.4622,-1.4623,-1.4624,0,-1.4824,-1.4756,-1.4761,-1.4744,-1.4696,-1.4687,-1.4686,-1.466,-1.4656,-1.4627,-1.4627,-1.4604,-1.4574,-1.4556,-1.4519,-1.4526,-1.4577,-1.4492,-1.449,-1.4512,-1.4611,-1.4639,-1.4649,-1.4551,-1.4552,-1.4553,-1.4615,0,-1.4711,-1.4701,-1.4711,-1.4672,-1.4657,-1.4658,-1.4607,-1.4598,-1.4565,-1.4533,-1.4528,-1.449,-1.4463,-1.446,-1.4427,-1.4456,-1.4444,-1.4411,-1.437,-1.4429,-1.4448,-1.4456,-1.4345,-1.4344,-1.4342,-1.4341,0,0,-1.466,-1.4645,-1.4592,-1.4588,-1.4573,-1.4512,-1.4518,-1.4496,-1.4452,-1.4443,-1.4419,-1.4384,-1.4353,-1.4354,-1.4368,-1.4356,-1.4357,-1.4338,-1.44,-1.4407,-1.4413,-1.4435,-1.4443,-1.4339,-1.4338,-1.4338,-1.4338,0,-1.4609,-1.4578,-1.4584,-1.4559,-1.4519,-1.4484,-1.4485,-1.4435,-1.4414,-1.4408,-1.4358,-1.4348,-1.4319,-1.4295,-1.428,-1.4336,-1.4299,-1.4331,-1.438,-1.4389,-1.4397,-1.4404,-1.4428,-1.4436,-1.4334,-1.4335,-1.4335,0,-1.4545,-1.4507,-1.4504,-1.4465,-1.4438,-1.4429,-1.4373,-1.4365,-1.4358,-1.429,-1.4285,-1.4257,-1.4219,-1.4224,-1.4225,-1.4203,-1.425,-1.4224,-1.4231,-1.423,-1.4236,-1.4246,-1.4255,-1.4136,-1.4135,-1.4135,0,0,-1.4507,-1.4497,-1.444,-1.4449,-1.4436,-1.4383,-1.4372,-1.4338,-1.4305,-1.4292,-1.4255,-1.4224,-1.4207,-1.4197,-1.4178,-1.4191,-1.418,-1.4202,-1.4211,-1.4219,-1.4223,-1.4231,-1.4241,-1.4133,-1.4133,-1.4133,0,0,-1.4489,-1.4424,-1.4396,-1.44,-1.4371,-1.4315,-1.4324,-1.4288,-1.4265,-1.426,-1.42,-1.419,-1.4193,-1.4167,-1.4149,-1.4163,-1.4122,-1.4125,-1.418,-1.4192,-1.4201,-1.4208,-1.4087,0,0,0,0,0,-1.441,-1.4432,-1.4407,-1.44,-1.4349,-1.4329,-1.4322,-1.4274,-1.4247,-1.4255,-1.4219,-1.4179,-1.4146,-1.4129,-1.4123,-1.4143,-1.411,-1.4114,-1.4118,-1.4192,-1.4204,-1.4214,0,0,0,0,0,0,-1.4407,-1.4399,-1.4406,-1.4353,-1.434,-1.4328,-1.4272,-1.426,-1.4245,-1.4238,-1.4187,-1.4177,-1.4135,-1.4129,-1.4124,-1.4145,-1.4088,-1.4112,-1.4115,-1.4118,-1.4196,-1.4206,-1.4214,0,0,0,0,0,-1.4404,-1.4397,-1.4328,-1.4352,-1.4341,-1.4283,-1.4271,-1.426,-1.4248,-1.4191,-1.4179,-1.4213,-1.4137,-1.413,-1.4125,-1.4148,-1.4091,-1.4089,-1.4114,-1.4117,-1.4119,-1.4201,0,0,0,0,0,0,-1.4402,-1.4387,-1.4325,-1.432,-1.434,-1.4282,-1.4272,-1.4261,-1.42,-1.419,-1.4214,-1.4209,-1.4139,-1.4133,-1.4127,-1.4152,-1.4093,-1.4092,-1.4091,-1.4116,-1.4118,-1.412,0,0,0,0,0,0,-1.4391,-1.4384,-1.4322,-1.431,-1.4303,-1.4283,-1.4273,-1.4262,-1.4201,-1.4227,-1.4221,-1.4212,-1.4147,-1.4135,-1.4131,-1.4114,-1.4095,-1.4094,-1.4093,-1.4092,-1.4118,-1.412,0,0,0,0,0,0,-1.4387,-1.4381,-1.4311,-1.4305,-1.4299,-1.424,-1.4271,-1.4221,-1.4191,-1.4231,-1.4186,-1.4184,-1.415,-1.4145,-1.4133,-1.4119,-1.4116,-1.4095,-1.4094,-1.4093,-1.4093,0,0,0,0,0,0,0,-1.4384,-1.4436,-1.4354,-1.4302,-1.4296,-1.4274,-1.4272,-1.4271,-1.419,-1.4188,-1.4187,-1.4185,-1.4104,-1.4103,-1.4101,-1.4123,0,0,-1.4095,-1.4095,0,0,0,0,0,0,0,0,-1.4437,-1.4436,-1.4354,-1.4353,-1.4352,-1.4274,-1.4272,-1.4271,-1.419,-1.4189,-1.4187,-1.4186,-1.4104,-1.4102,-1.4101,0,0,0,0,0,0,0,0,0,0,0,0,0,0,0,-1.4354,-1.4353,0,-1.4273,-1.4272,-1.4272,-1.419,-1.4189,-1.4187,-1.4186,-1.4103,-1.4102,-1.4101,0,0,0,0,0,0,0,0,0,0,0,0,0,0,0,0,0,0,0,0,0,0,0,0,0,0,0,0,0,0,0,0,0,0,0,0,0,0,0,0,0,0,0,0,0,0,0,0,0,0,0,0,0,0,0,0,0,0,0,0,0,0,0,0,0,0,0,0,0]}],[{"header":{"parameterUnit":"kt","parameterCategory":2,"dx":1,"dy":1,"la1":30.253999710083008,"la2":30.299108505249023,"lo1":-89.0895004272461,"lo2":-89.04439544677734,"nx":28,"ny":28,"refTime":"2022-09-21T21:00:00:Z","depth":0,"parameterNumber":2,"parameterNumberName":"V-component_of_WINDS"},"data":[0.2061,0.2047,0.1989,0.1946,0.1887,0.1845,0.1812,0.1762,0.1708,0.1651,0.1607,0.1547,0.1468,0.14,0.1348,0.1321,0.1301,0.1336,0.1298,0.1195,0.1177,0.1159,0.1157,0.1335,0.1335,0.1409,0.141,0.1411,0.1981,0.1923,0.1886,0.1809,0.1774,0.1704,0.1638,0.1612,0.1578,0.1512,0.1468,0.1412,0.1361,0.1269,0.1209,0.1197,0.1159,0.1184,0.118,0.1168,0.1058,0.1056,0.1215,0.1215,0.1215,0.1215,0.1215,0.1215,0.182,0.1816,0.1736,0.1694,0.1641,0.159,0.1574,0.1501,0.1463,0.1396,0.1336,0.1295,0.1217,0.1118,0.1071,0.1035,0.0996,0.1005,0.1005,0.1007,0.1015,0.0901,0.1024,0.1023,0.1022,0.1022,0.1021,0,0.1683,0.1634,0.1596,0.1539,0.1506,0.1457,0.1401,0.1391,0.127,0.1244,0.1199,0.1164,0.1093,0.1043,0.0976,0.0924,0.0844,0.0834,0.0838,0.0861,0.089,0.0866,0.0682,0.083,0.0828,0.0826,0.0825,0.0825,0.1509,0.1514,0.1405,0.1385,0.1341,0.1312,0.1282,0.1176,0.1148,0.1064,0.1065,0.1016,0.097,0.0909,0.0822,0.077,0.073,0.0791,0.0721,0.0744,0.072,0.0718,0.0714,0.0805,0.0807,0.0809,0.0811,0,0.1414,0.1322,0.1312,0.1203,0.1176,0.1186,0.1091,0.1084,0.1015,0.0993,0.0982,0.0873,0.0832,0.0735,0.067,0.062,0.0625,0.0592,0.0648,0.0633,0.0673,0.0667,0.0832,0.0844,0.0667,0.0669,0.0671,0,0.1226,0.1239,0.1098,0.1097,0.1105,0.0998,0.1008,0.0949,0.0883,0.0865,0.0764,0.0749,0.0629,0.0599,0.0526,0.0515,0.0505,0.0463,0.0442,0.0468,0.0472,0.0447,0.0435,0.0406,0.0405,0.0405,0.0404,0,0.1083,0.1026,0.1025,0.0996,0.0883,0.0885,0.0837,0.0764,0.0736,0.0686,0.0665,0.0616,0.0587,0.0549,0.0454,0.041,0.0441,0.036,0.0397,0.0399,0.0405,0.0405,0.058,0.0403,0.0403,0.0403,0.0402,0,0.0914,0.0867,0.0884,0.0784,0.0773,0.0775,0.0716,0.0696,0.0626,0.0579,0.0539,0.0459,0.0448,0.0372,0.0352,0.0319,0.0295,0.0256,0.0257,0.0244,0.0161,0.0263,0.0447,0.0458,0.0239,0.0237,0.0236,0,0.077,0.0764,0.0671,0.069,0.0672,0.0555,0.0554,0.0497,0.0435,0.0409,0.0341,0.0315,0.024,0.0217,0.0221,0.0148,0.0192,0.0141,0.0096,0.0096,0.011,0.0279,0.0327,0.0419,0.0218,0.022,0.0221,0,0.0647,0.0511,0.0522,0.0482,0.0391,0.0378,0.038,0.033,0.0317,0.0268,0.0261,0.0227,0.0164,0.0131,0.0062,0.0071,0.0159,0.0004,-0.0,0.0028,0.0204,0.0247,0.0264,0.0109,0.0111,0.0113,0.0207,0,0.0397,0.0385,0.0411,0.0335,0.0311,0.0322,0.0219,0.0207,0.014,0.0075,0.007,0.0001,-0.0049,-0.0051,-0.0114,-0.006,-0.0086,-0.0149,-0.0234,-0.0118,-0.0091,-0.0078,-0.0267,-0.027,-0.0272,-0.0275,0,0,0.0278,0.0258,0.0159,0.0157,0.0129,0.0009,0.0027,-0.0013,-0.009,-0.0108,-0.0155,-0.0214,-0.0267,-0.0264,-0.0235,-0.0251,-0.0254,-0.0288,-0.017,-0.0158,-0.0147,-0.0116,-0.0101,-0.0279,-0.028,-0.0281,-0.0282,0,0.0164,0.0116,0.0137,0.0091,0.0019,-0.005,-0.0045,-0.0137,-0.0178,-0.018,-0.0281,-0.0295,-0.0334,-0.0382,-0.0411,-0.029,-0.0367,-0.0295,-0.0201,-0.0192,-0.0176,-0.0163,-0.0128,-0.0113,-0.0288,-0.0287,-0.0287,0,0.0017,-0.005,-0.0049,-0.0112,-0.0159,-0.0171,-0.0285,-0.0289,-0.03,-0.0431,-0.0432,-0.0483,-0.055,-0.0529,-0.0523,-0.0566,-0.0466,-0.0511,-0.0497,-0.0501,-0.0498,-0.0479,-0.0462,-0.0685,-0.0686,-0.0687,0,0,-0.0067,-0.0077,-0.0183,-0.0144,-0.0167,-0.0268,-0.0282,-0.035,-0.0408,-0.043,-0.0498,-0.0551,-0.0578,-0.0592,-0.062,-0.058,-0.0607,-0.0556,-0.0537,-0.0521,-0.0516,-0.0508,-0.0489,-0.0691,-0.0691,-0.0691,0,0,-0.0108,-0.023,-0.0286,-0.0253,-0.0304,-0.0406,-0.0379,-0.0451,-0.0487,-0.05,-0.0613,-0.0632,-0.0614,-0.0659,-0.0697,-0.0654,-0.0734,-0.0727,-0.0626,-0.0603,-0.0585,-0.0577,-0.0825,0,0,0,0,0,-0.0277,-0.0215,-0.0265,-0.0274,-0.0353,-0.0378,-0.0389,-0.0482,-0.054,-0.0517,-0.0586,-0.0665,-0.0705,-0.0742,-0.075,-0.0707,-0.0739,-0.0731,-0.0722,-0.0583,-0.0559,-0.0538,0,0,0,0,0,0,-0.0282,-0.0293,-0.0267,-0.0364,-0.0383,-0.0381,-0.05,-0.0524,-0.0545,-0.056,-0.0649,-0.0668,-0.0747,-0.0744,-0.075,-0.0707,-0.0823,-0.0736,-0.0728,-0.0722,-0.0575,-0.0555,-0.0537,0,0,0,0,0,-0.0286,-0.0295,-0.0395,-0.0366,-0.0382,-0.0491,-0.0503,-0.0524,-0.0542,-0.0647,-0.0668,-0.061,-0.0743,-0.0755,-0.0748,-0.0702,-0.082,-0.0822,-0.0731,-0.0725,-0.072,-0.0565,0,0,0,0,0,0,-0.0289,-0.0315,-0.0401,-0.0409,-0.0396,-0.0493,-0.0512,-0.0524,-0.0629,-0.0649,-0.0614,-0.0624,-0.074,-0.075,-0.0757,-0.0696,-0.0817,-0.0819,-0.082,-0.0727,-0.0722,-0.0718,0,0,0,0,0,0,-0.0311,-0.0321,-0.0405,-0.0438,-0.0451,-0.0495,-0.0511,-0.0516,-0.0629,-0.0591,-0.0603,-0.0617,-0.0728,-0.0745,-0.0752,-0.0757,-0.0815,-0.0817,-0.0818,-0.0819,-0.0723,-0.0719,0,0,0,0,0,0,-0.0317,-0.0326,-0.0437,-0.0446,-0.0458,-0.056,-0.0502,-0.0576,-0.0657,-0.0584,-0.0666,-0.0671,-0.0721,-0.073,-0.0747,-0.0749,-0.0755,-0.0815,-0.0816,-0.0817,-0.0818,0,0,0,0,0,0,0,-0.0322,-0.0239,-0.035,-0.0453,-0.0464,-0.0488,-0.049,-0.0492,-0.0658,-0.0661,-0.0665,-0.0669,-0.0805,-0.0807,-0.0809,-0.0742,0,0,-0.0815,-0.0816,0,0,0,0,0,0,0,0,-0.0238,-0.0239,-0.0351,-0.0352,-0.0354,-0.0488,-0.049,-0.0492,-0.0658,-0.0661,-0.0665,-0.0668,-0.0806,-0.0807,-0.0809,0,0,0,0,0,0,0,0,0,0,0,0,0,0,0,-0.0351,-0.0352,0,-0.0488,-0.049,-0.0491,-0.0659,-0.0661,-0.0664,-0.0666,-0.0806,-0.0808,-0.0809,0,0,0,0,0,0,0,0,0,0,0,0,0,0,0,0,0,0,0,0,0,0,0,0,0,0,0,0,0,0,0,0,0,0,0,0,0,0,0,0,0,0,0,0,0,0,0,0,0,0,0,0,0,0,0,0,0,0,0,0,0,0,0,0,0,0,0,0,0]}]]]